QPF
0.06 0.06 0.05 0.05 0.05 0.05 0.05 0.04 0.04 0.04 0.04 0.05 0.05 0.04 0.04 0.06 0.06 0.06 0.05 0.03 0.02 0.02 0.01 0.01 0.01 0.02 0.02 0.03 0.03 0.03 0.03 0.02 0.03 0.03 0.03 0.02 0.02 0.01
0.07 0.06 0.04 0.03 0.03 0.03 0.03 0.03 0.02 0.03 0.04 0.04 0.05 0.05 0.06 0.07 0.06 0.05 0.04 0.03 0.03 0.02 0.02 0.01 0.02 0.02 0.03 0.03 0.03 0.03 0.03 0.03 0.03 0.02 0.02 0.01 0.01 0.01
0.06 0.05 0.04 0.03 0.02 0.03 0.03 0.02 0.02 0.03 0.04 0.04 0.04 0.05 0.06 0.06 0.06 0.06 0.03 0.03 0.03 0.03 0.02 0.03 0.02 0.02 0.02 0.03 0.03 0.03 0.03 0.02 0.01 0.01 0.01 0.01 0.01 0.01
0.03 0.04 0.04 0.03 0.03 0.03 0.03 0.03 0.03 0.03 0.04 0.04 0.05 0.06 0.05 0.04 0.05 0.06 0.04 0.03 0.03 0.04 0.04 0.04 0.03 0.02 0.02 0.02 0.01 0.02 0.02 0.02 0.01 0.01 0.01 0.01 0.01 0.01
0.01 0.02 0.04 0.05 0.03 0.03 0.03 0.03 0.03 0.04 0.04 0.04 0.05 0.05 0.04 0.03 0.03 0.05 0.03 0.03 0.03 0.04 0.05 0.03 0.03 0.01 0.01 0.00 0.00 0.00 0.00 0.00 0.01 0.01 0.01 0.01 0.01 0.01
0.01 0.01 0.01 0.03 0.03 0.03 0.03 0.04 0.04 0.05 0.05 0.04 0.04 0.03 0.03 0.03 0.05 0.05 0.04 0.02 0.02 0.03 0.04 0.02 0.01 0.01 0.00 0.00 0.00 0.00 0.00 0.00 0.00 0.00 0.01 0.01 0.01 0.01
0.01 0.01 0.01 0.01 0.01 0.02 0.02 0.03 0.03 0.04 0.04 0.03 0.03 0.03 0.02 0.03 0.04 0.04 0.03 0.02 0.03 0.02 0.02 0.02 0.02 0.01 0.01 0.00 0.00 0.00 0.00 0.00 0.00 0.00 0.01 0.01 0.01 0.01
0.02 0.01 0.01 0.01 0.01 0.01 0.01 0.01 0.02 0.02 0.02 0.03 0.02 0.02 0.02 0.03 0.04 0.04 0.05 0.03 0.03 0.02 0.03 0.03 0.03 0.03 0.02 0.01 0.01 0.00 0.00 0.00 0.00 0.00 0.00 0.01 0.01 0.01
0.02 0.01 0.01 0.01 0.01 0.01 0.01 0.01 0.02 0.02 0.02 0.02 0.02 0.02 0.02 0.03 0.05 0.06 0.07 0.07 0.06 0.06 0.05 0.05 0.04 0.03 0.02 0.01 0.01 0.01 0.01 0.01 0.01 0.00 0.00 0.00 0.00 0.01
0.02 0.02 0.01 0.01 0.01 0.01 0.01 0.01 0.01 0.02 0.02 0.02 0.02 0.03 0.03 0.03 0.05 0.06 0.08 0.09 0.09 0.07 0.06 0.05 0.04 0.03 0.02 0.02 0.02 0.02 0.02 0.01 0.02 0.01 0.01 0.00 0.00 0.01
0.01 0.01 0.01 0.01 0.01 0.01 0.01 0.01 0.02 0.02 0.02 0.02 0.02 0.03 0.04 0.04 0.04 0.05 0.06 0.06 0.07 0.07 0.06 0.05 0.04 0.03 0.03 0.03 0.02 0.02 0.01 0.02 0.02 0.01 0.00 0.00 0.00 0.00
0.02 0.01 0.01 0.01 0.02 0.02 0.01 0.01 0.02 0.02 0.03 0.04 0.03 0.03 0.03 0.03 0.04 0.04 0.05 0.06 0.06 0.05 0.04 0.03 0.03 0.02 0.01 0.02 0.02 0.01 0.01 0.01 0.01 0.00 0.00 0.00 0.00 0.00
0.03 0.02 0.03 0.04 0.03 0.04 0.03 0.02 0.03 0.04 0.05 0.06 0.06 0.05 0.04 0.04 0.04 0.04 0.05 0.05 0.06 0.05 0.04 0.03 0.03 0.03 0.02 0.01 0.01 0.01 0.01 0.00 0.00 0.00 0.00 0.00 0.00 0.00
0.03 0.03 0.03 0.04 0.04 0.05 0.05 0.06 0.06 0.06 0.05 0.06 0.07 0.06 0.06 0.05 0.04 0.04 0.04 0.04 0.04 0.04 0.04 0.04 0.03 0.03 0.03 0.02 0.01 0.01 0.01 0.00 0.00 0.01 0.01 0.01 0.01 0.01
0.03 0.02 0.02 0.02 0.02 0.03 0.03 0.03 0.03 0.04 0.04 0.04 0.05 0.05 0.05 0.04 0.04 0.04 0.03 0.04 0.05 0.04 0.04 0.04 0.04 0.04 0.03 0.03 0.02 0.01 0.01 0.01 0.02 0.02 0.02 0.01 0.02 0.02
0.02 0.01 0.01 0.02 0.01 0.01 0.01 0.01 0.01 0.02 0.02 0.02 0.03 0.03 0.04 0.05 0.05 0.05 0.04 0.04 0.05 0.04 0.04 0.04 0.04 0.04 0.04 0.03 0.02 0.02 0.01 0.02 0.02 0.02 0.02 0.02 0.02 0.01
0.02 0.01 0.01 0.02 0.02 0.01 0.01 0.02 0.02 0.02 0.03 0.03 0.04 0.04 0.05 0.07 0.06 0.06 0.06 0.05 0.05 0.05 0.04 0.04 0.04 0.03 0.03 0.03 0.03 0.02 0.02 0.03 0.03 0.02 0.02 0.02 0.02 0.02
0.02 0.01 0.01 0.01 0.01 0.02 0.01 0.01 0.01 0.02 0.02 0.03 0.05 0.06 0.07 0.07 0.07 0.07 0.07 0.07 0.06 0.05 0.04 0.03 0.03 0.03 0.03 0.03 0.02 0.02 0.03 0.04 0.03 0.02 0.02 0.02 0.03 0.03
0.01 0.01 0.01 0.01 0.01 0.01 0.01 0.01 0.01 0.02 0.02 0.03 0.04 0.06 0.05 0.06 0.06 0.07 0.06 0.05 0.05 0.03 0.03 0.02 0.02 0.03 0.03 0.03 0.03 0.03 0.03 0.03 0.02 0.02 0.01 0.01 0.01 0.01
0.01 0.01 0.01 0.01 0.01 0.01 0.01 0.01 0.01 0.02 0.02 0.03 0.04 0.05 0.05 0.05 0.05 0.05 0.04 0.04 0.04 0.03 0.03 0.03 0.03 0.04 0.04 0.04 0.04 0.04 0.03 0.03 0.03 0.02 0.02 0.02 0.01 0.01
0.01 0.01 0.01 0.01 0.01 0.01 0.01 0.02 0.02 0.02 0.02 0.04 0.06 0.06 0.05 0.05 0.04 0.04 0.04 0.04 0.04 0.04 0.04 0.03 0.03 0.05 0.06 0.05 0.05 0.03 0.02 0.02 0.03 0.03 0.03 0.03 0.02 0.02
0.02 0.02 0.01 0.01 0.01 0.02 0.02 0.02 0.03 0.03 0.03 0.03 0.07 0.09 0.07 0.06 0.05 0.05 0.05 0.04 0.04 0.04 0.04 0.03 0.03 0.05 0.05 0.04 0.03 0.03 0.02 0.03 0.04 0.04 0.03 0.03 0.03 0.03
0.03 0.03 0.03 0.02 0.02 0.02 0.02 0.02 0.03 0.04 0.06 0.05 0.07 0.10 0.09 0.08 0.07 0.07 0.06 0.05 0.05 0.05 0.04 0.04 0.04 0.04 0.04 0.04 0.04 0.04 0.04 0.04 0.04 0.03 0.03 0.02 0.02 0.02
MSLP
1009.84 1009.38 1008.95 1008.54 1008.16 1007.80 1007.49 1007.22 1007.00 1006.84 1006.76 1006.77 1006.90 1007.15 1007.53 1008.03 1008.64 1009.35 1010.11 1010.90 1011.68 1012.44 1013.15 1013.80 1014.39 1014.94 1015.45 1015.93 1016.40 1016.84 1017.27 1017.66 1018.02 1018.33 1018.60 1018.85 1019.07 1019.29
1009.69 1009.26 1008.83 1008.43 1008.06 1007.71 1007.41 1007.15 1006.95 1006.83 1006.80 1006.88 1007.06 1007.37 1007.79 1008.32 1008.94 1009.63 1010.34 1011.07 1011.78 1012.46 1013.10 1013.68 1014.23 1014.74 1015.23 1015.69 1016.14 1016.57 1016.96 1017.32 1017.63 1017.89 1018.11 1018.30 1018.48 1018.68
1009.52 1009.08 1008.67 1008.28 1007.91 1007.58 1007.29 1007.06 1006.90 1006.82 1006.84 1006.97 1007.22 1007.58 1008.04 1008.59 1009.21 1009.87 1010.54 1011.20 1011.84 1012.44 1013.00 1013.52 1014.01 1014.47 1014.93 1015.37 1015.79 1016.20 1016.56 1016.89 1017.16 1017.38 1017.56 1017.72 1017.87 1018.05
1009.33 1008.90 1008.48 1008.09 1007.73 1007.41 1007.14 1006.93 1006.81 1006.77 1006.84 1007.02 1007.32 1007.72 1008.21 1008.77 1009.38 1010.01 1010.63 1011.24 1011.80 1012.33 1012.81 1013.27 1013.70 1014.12 1014.54 1014.95 1015.35 1015.74 1016.09 1016.39 1016.65 1016.85 1017.02 1017.16 1017.31 1017.49
1009.15 1008.71 1008.28 1007.89 1007.53 1007.21 1006.96 1006.77 1006.67 1006.66 1006.76 1006.98 1007.30 1007.73 1008.23 1008.79 1009.39 1009.99 1010.57 1011.12 1011.63 1012.09 1012.51 1012.91 1013.29 1013.67 1014.05 1014.44 1014.83 1015.21 1015.56 1015.87 1016.14 1016.36 1016.55 1016.72 1016.88 1017.07
1008.97 1008.51 1008.08 1007.67 1007.31 1007.00 1006.74 1006.56 1006.47 1006.48 1006.59 1006.81 1007.14 1007.57 1008.07 1008.62 1009.20 1009.77 1010.32 1010.83 1011.28 1011.70 1012.07 1012.43 1012.77 1013.12 1013.48 1013.86 1014.25 1014.64 1015.02 1015.37 1015.68 1015.96 1016.19 1016.41 1016.62 1016.85
1008.78 1008.30 1007.86 1007.45 1007.08 1006.77 1006.51 1006.33 1006.23 1006.23 1006.33 1006.54 1006.85 1007.26 1007.73 1008.26 1008.81 1009.36 1009.88 1010.36 1010.79 1011.17 1011.52 1011.84 1012.16 1012.50 1012.85 1013.24 1013.65 1014.07 1014.49 1014.90 1015.29 1015.64 1015.96 1016.25 1016.52 1016.80
1008.53 1008.07 1007.63 1007.23 1006.87 1006.55 1006.29 1006.10 1005.98 1005.94 1006.01 1006.18 1006.45 1006.82 1007.26 1007.76 1008.28 1008.80 1009.30 1009.76 1010.18 1010.55 1010.88 1011.20 1011.51 1011.84 1012.21 1012.61 1013.05 1013.51 1014.00 1014.48 1014.95 1015.40 1015.81 1016.19 1016.54 1016.86
1008.22 1007.79 1007.38 1007.01 1006.67 1006.36 1006.10 1005.89 1005.74 1005.67 1005.68 1005.79 1006.01 1006.32 1006.72 1007.17 1007.66 1008.16 1008.65 1009.11 1009.52 1009.89 1010.23 1010.55 1010.87 1011.21 1011.58 1012.01 1012.47 1012.99 1013.53 1014.08 1014.64 1015.17 1015.67 1016.13 1016.55 1016.94
1007.82 1007.45 1007.10 1006.78 1006.48 1006.20 1005.95 1005.72 1005.54 1005.42 1005.38 1005.43 1005.58 1005.83 1006.17 1006.59 1007.05 1007.53 1008.01 1008.47 1008.89 1009.27 1009.62 1009.96 1010.29 1010.64 1011.03 1011.46 1011.95 1012.49 1013.07 1013.67 1014.28 1014.88 1015.45 1015.98 1016.45 1016.88
1007.34 1007.05 1006.79 1006.54 1006.30 1006.05 1005.81 1005.58 1005.37 1005.21 1005.11 1005.10 1005.19 1005.39 1005.68 1006.06 1006.49 1006.96 1007.44 1007.91 1008.34 1008.74 1009.11 1009.46 1009.80 1010.15 1010.54 1010.97 1011.46 1012.00 1012.59 1013.21 1013.84 1014.46 1015.06 1015.62 1016.12 1016.57
1006.77 1006.59 1006.42 1006.25 1006.07 1005.87 1005.65 1005.42 1005.19 1005.00 1004.86 1004.80 1004.84 1005.00 1005.25 1005.60 1006.03 1006.49 1006.97 1007.45 1007.90 1008.32 1008.70 1009.05 1009.40 1009.75 1010.13 1010.54 1011.01 1011.52 1012.08 1012.66 1013.27 1013.87 1014.45 1015.00 1015.50 1015.95
1006.16 1006.06 1005.98 1005.89 1005.76 1005.60 1005.40 1005.17 1004.94 1004.72 1004.56 1004.48 1004.50 1004.63 1004.87 1005.21 1005.62 1006.09 1006.58 1007.07 1007.53 1007.96 1008.35 1008.72 1009.06 1009.40 1009.76 1010.14 1010.56 1011.02 1011.51 1012.03 1012.57 1013.11 1013.64 1014.13 1014.60 1015.03
1005.52 1005.50 1005.47 1005.43 1005.34 1005.20 1005.01 1004.78 1004.55 1004.33 1004.16 1004.07 1004.09 1004.22 1004.46 1004.81 1005.23 1005.71 1006.21 1006.71 1007.19 1007.63 1008.03 1008.40 1008.74 1009.07 1009.40 1009.74 1010.11 1010.50 1010.92 1011.35 1011.79 1012.24 1012.67 1013.09 1013.50 1013.88
1004.93 1004.92 1004.91 1004.87 1004.78 1004.64 1004.44 1004.21 1003.97 1003.76 1003.60 1003.53 1003.57 1003.73 1004.00 1004.36 1004.81 1005.30 1005.82 1006.32 1006.81 1007.26 1007.67 1008.04 1008.38 1008.70 1009.02 1009.34 1009.66 1009.99 1010.33 1010.67 1011.01 1011.35 1011.68 1012.01 1012.34 1012.66
1004.42 1004.38 1004.33 1004.25 1004.12 1003.94 1003.71 1003.47 1003.23 1003.03 1002.90 1002.86 1002.94 1003.13 1003.44 1003.84 1004.30 1004.81 1005.34 1005.86 1006.35 1006.80 1007.22 1007.60 1007.95 1008.28 1008.60 1008.91 1009.21 1009.50 1009.79 1010.06 1010.31 1010.55 1010.79 1011.03 1011.27 1011.54
1004.06 1003.94 1003.80 1003.63 1003.42 1003.17 1002.89 1002.62 1002.37 1002.19 1002.09 1002.09 1002.22 1002.46 1002.81 1003.24 1003.73 1004.25 1004.77 1005.29 1005.78 1006.23 1006.66 1007.06 1007.43 1007.79 1008.13 1008.46 1008.77 1009.06 1009.33 1009.56 1009.77 1009.95 1010.12 1010.28 1010.46 1010.67
1003.91 1003.67 1003.40 1003.10 1002.78 1002.44 1002.10 1001.79 1001.54 1001.37 1001.30 1001.35 1001.52 1001.80 1002.18 1002.63 1003.12 1003.64 1004.16 1004.66 1005.13 1005.58 1006.01 1006.43 1006.83 1007.23 1007.62 1008.00 1008.36 1008.69 1008.98 1009.22 1009.43 1009.59 1009.73 1009.86 1010.00 1010.17
1004.00 1003.61 1003.20 1002.77 1002.33 1001.90 1001.49 1001.14 1000.88 1000.71 1000.67 1000.75 1000.95 1001.26 1001.65 1002.10 1002.58 1003.07 1003.55 1004.02 1004.47 1004.90 1005.32 1005.75 1006.19 1006.64 1007.09 1007.54 1007.97 1008.37 1008.72 1009.02 1009.27 1009.46 1009.62 1009.75 1009.89 1010.06
1004.33 1003.80 1003.26 1002.71 1002.17 1001.65 1001.19 1000.80 1000.52 1000.36 1000.32 1000.42 1000.63 1000.93 1001.31 1001.73 1002.17 1002.61 1003.03 1003.44 1003.84 1004.24 1004.65 1005.09 1005.55 1006.04 1006.55 1007.07 1007.59 1008.07 1008.51 1008.90 1009.22 1009.49 1009.71 1009.89 1010.08 1010.27
1004.88 1004.25 1003.60 1002.96 1002.34 1001.77 1001.27 1000.86 1000.56 1000.40 1000.36 1000.44 1000.63 1000.91 1001.23 1001.59 1001.96 1002.32 1002.67 1003.00 1003.34 1003.68 1004.06 1004.48 1004.95 1005.47 1006.02 1006.61 1007.20 1007.77 1008.31 1008.79 1009.21 1009.58 1009.89 1010.17 1010.42 1010.68
1005.58 1004.90 1004.21 1003.52 1002.87 1002.27 1001.75 1001.33 1001.03 1000.85 1000.79 1000.84 1000.98 1001.19 1001.44 1001.71 1001.98 1002.24 1002.49 1002.73 1002.99 1003.27 1003.60 1003.98 1004.44 1004.96 1005.54 1006.16 1006.80 1007.44 1008.06 1008.63 1009.16 1009.63 1010.05 1010.44 1010.81 1011.16
1006.39 1005.70 1005.01 1004.34 1003.69 1003.10 1002.59 1002.18 1001.87 1001.67 1001.57 1001.56 1001.64 1001.76 1001.91 1002.07 1002.22 1002.37 1002.51 1002.66 1002.82 1003.03 1003.30 1003.64 1004.06 1004.55 1005.12 1005.75 1006.41 1007.09 1007.76 1008.40 1009.01 1009.59 1010.12 1010.63 1011.11 1011.59
Thickness
5720 5719 5719 5719 5719 5719 5719 5718 5714 5710 5711 5712 5712 5713 5711 5709 5706 5706 5704 5701 5700 5699 5698 5698 5697 5695 5694 5693 5691 5690 5689 5688 5687 5685 5683 5682 5680 5679
5715 5714 5714 5716 5716 5716 5717 5716 5715 5712 5709 5711 5710 5710 5708 5707 5703 5702 5700 5698 5696 5695 5695 5694 5693 5692 5690 5689 5687 5686 5685 5684 5682 5681 5679 5678 5676 5675
5711 5710 5709 5710 5711 5713 5713 5713 5712 5710 5706 5707 5707 5705 5703 5701 5700 5699 5697 5696 5694 5691 5690 5689 5688 5687 5685 5684 5683 5681 5680 5679 5677 5676 5675 5673 5672 5671
5706 5705 5705 5706 5705 5707 5707 5707 5706 5706 5703 5700 5700 5700 5698 5697 5696 5695 5695 5693 5691 5687 5685 5684 5682 5681 5680 5678 5677 5676 5675 5673 5672 5671 5670 5668 5667 5665
5702 5701 5701 5701 5700 5700 5700 5701 5702 5702 5700 5698 5696 5696 5695 5694 5692 5691 5690 5688 5687 5684 5681 5678 5677 5676 5674 5673 5671 5670 5669 5667 5666 5665 5664 5663 5661 5660
5698 5697 5697 5696 5695 5695 5694 5694 5695 5694 5694 5693 5692 5691 5690 5688 5687 5686 5684 5684 5684 5682 5678 5675 5672 5671 5669 5667 5666 5664 5663 5661 5660 5659 5658 5656 5655 5654
5693 5693 5692 5690 5689 5688 5690 5689 5689 5689 5690 5688 5687 5686 5684 5682 5682 5682 5680 5679 5679 5678 5675 5674 5671 5669 5666 5663 5661 5659 5657 5655 5654 5653 5651 5650 5649 5647
5686 5687 5687 5685 5683 5681 5680 5680 5680 5681 5682 5681 5681 5679 5677 5677 5676 5675 5675 5673 5672 5673 5670 5669 5668 5666 5663 5661 5657 5654 5652 5649 5648 5646 5645 5643 5642 5641
5681 5681 5683 5683 5680 5680 5676 5674 5673 5672 5672 5673 5674 5672 5672 5671 5669 5669 5667 5667 5665 5666 5664 5663 5663 5661 5660 5657 5652 5648 5646 5644 5642 5640 5638 5637 5636 5634
5675 5675 5675 5675 5675 5673 5673 5672 5671 5670 5668 5667 5667 5667 5667 5665 5663 5662 5661 5659 5659 5660 5658 5656 5657 5656 5656 5652 5647 5644 5640 5638 5636 5634 5632 5631 5629 5628
5670 5670 5669 5668 5665 5664 5664 5664 5663 5663 5662 5660 5659 5658 5658 5657 5655 5656 5655 5654 5653 5654 5653 5650 5650 5649 5649 5648 5643 5638 5635 5633 5631 5629 5627 5625 5623 5621
5663 5663 5661 5661 5658 5656 5657 5658 5657 5657 5657 5656 5654 5653 5653 5653 5650 5649 5650 5649 5648 5647 5647 5644 5643 5643 5642 5642 5639 5634 5631 5628 5625 5623 5621 5619 5617 5616
5659 5659 5658 5653 5651 5649 5649 5651 5650 5649 5650 5650 5651 5651 5650 5649 5648 5646 5644 5643 5642 5641 5641 5638 5636 5636 5635 5634 5633 5631 5628 5625 5622 5619 5616 5613 5611 5608
5651 5652 5650 5646 5644 5642 5642 5642 5641 5640 5645 5646 5646 5646 5645 5643 5642 5641 5638 5636 5635 5634 5632 5630 5629 5627 5626 5624 5624 5624 5622 5620 5617 5615 5612 5608 5605 5602
5643 5640 5639 5637 5636 5636 5635 5635 5635 5638 5640 5640 5640 5639 5638 5636 5634 5632 5631 5629 5627 5626 5626 5623 5622 5620 5618 5617 5616 5615 5613 5611 5609 5607 5605 5603 5601 5598
5633 5632 5630 5629 5630 5630 5631 5631 5633 5634 5634 5633 5633 5632 5630 5628 5627 5625 5624 5623 5621 5620 5618 5616 5614 5612 5611 5610 5608 5607 5605 5602 5601 5599 5597 5595 5594 5592
5624 5626 5627 5628 5628 5628 5629 5629 5628 5627 5626 5626 5625 5624 5622 5620 5619 5619 5616 5616 5614 5612 5611 5609 5608 5605 5604 5602 5600 5599 5598 5596 5594 5591 5587 5587 5586 5585
5615 5620 5621 5622 5623 5623 5623 5623 5622 5621 5620 5618 5617 5616 5615 5613 5611 5611 5609 5607 5606 5605 5604 5603 5601 5599 5597 5595 5591 5591 5590 5588 5586 5583 5581 5580 5580 5578
5608 5613 5614 5615 5616 5616 5616 5617 5616 5615 5612 5611 5609 5608 5607 5606 5604 5603 5602 5600 5599 5599 5598 5597 5595 5592 5589 5588 5586 5582 5581 5579 5577 5575 5575 5574 5574 5572
5604 5606 5608 5608 5609 5609 5609 5609 5608 5607 5605 5603 5602 5601 5599 5598 5597 5596 5595 5593 5593 5592 5591 5590 5588 5586 5584 5582 5579 5576 5571 5570 5569 5568 5568 5568 5566 5563
5599 5600 5601 5602 5602 5602 5602 5601 5600 5598 5597 5596 5595 5593 5592 5591 5590 5589 5588 5584 5584 5585 5584 5583 5582 5578 5578 5575 5571 5569 5566 5561 5561 5559 5560 5560 5559 5559
5593 5593 5594 5594 5594 5595 5595 5594 5592 5591 5590 5589 5589 5588 5586 5585 5583 5581 5581 5580 5579 5579 5578 5578 5575 5572 5571 5568 5566 5563 5560 5557 5554 5551 5549 5549 5550 5551
5586 5587 5587 5587 5587 5587 5587 5587 5586 5585 5584 5582 5581 5580 5579 5577 5576 5575 5575 5574 5574 5573 5573 5571 5569 5567 5566 5564 5561 5558 5555 5553 5552 5550 5547 5543 5540 5539